Weather History for Paynesville, MN

Change the Weather History Date:

Saturday, February 15, 2014

  Actual Average (KLJF) Record (KLJF)
Temperature  
Mean Temperature 8 °F -  
Max Temperature 19 °F 24 °F 46 °F (1981)
Min Temperature -4 °F 6 °F -19 °F (1958)
Degree Days  
Heating Degree Days 58    
Moisture  
Dew Point 7 °F    
Average Humidity 81    
Maximum Humidity 86    
Minimum Humidity 70    
Precipitation  
Precipitation 0.00 in - - ()
Sea Level Pressure  
Sea Level Pressure 29.86 in    
Wind  
Wind Speed 4 mph (SSE)    
Max Wind Speed 13 mph    
Max Gust Speed 18 mph    
Visibility 9 miles    
Events Snow    
Averages and records for this station are not official NWS values.
T = Trace of Precipitation, MM = Missing Value Source: NWS Daily Summary

Daily Weather History Graph

Daily Weather History Graph

Search for Another Location

Airport:

Trip Planner

Search our weather history database for the weather conditions in past years. The results will help you decide how hot, cold, wet, or windy it might be!

Date:

Astronomy

Feb. 15, 2014 Rise Set
Actual Time 7:20 AM CST 5:46 PM CST
Civil Twilight 6:50 AM CST 6:16 PM CST
Nautical Twilight 6:15 AM CST 6:51 PM CST
Astronomical Twilight 5:41 AM CST 7:25 PM CST
Moon 6:52 PM CST (2/15) 7:15 AM CST (2/15)
Length of Visible Light 11h 26m
Length of Day
10h 26m
Waxing Gibbous, 99% of the Moon is Illuminated
Feb 15
Waxing Gibbous
Feb 22
Last Quarter
Mar 1
New
Mar 8
First Quarter
Mar 16
Full

Hourly Weather History & Observations

Time (CST) Temp. Windchill Dew Point Humidity Pressure Visibility Wind Dir Wind Speed Gust Speed Precip Events Conditions
12:12 AM -4.9 °F - -9.2 °F 82% 29.96 in 10.0 mi Calm Calm - N/A   Clear
12:33 AM -4.2 °F - -7.8 °F 84% 29.96 in 10.0 mi Calm Calm - N/A   Clear
12:52 AM -2.4 °F - -6.7 °F 82% 29.94 in 10.0 mi Calm Calm - N/A   Clear
1:12 AM -3.1 °F - -7.1 °F 83% 29.94 in 10.0 mi Calm Calm - N/A   Clear
1:32 AM -2.2 °F - -6.2 °F 83% 29.92 in 10.0 mi Calm Calm - N/A   Clear
1:52 AM -2.7 °F - -6.7 °F 83% 29.91 in 10.0 mi Calm Calm - N/A   Clear
2:13 AM -3.1 °F - -7.2 °F 82% 29.91 in 10.0 mi Calm Calm - N/A   Clear
2:32 AM -2.7 °F - -6.7 °F 83% 29.92 in 10.0 mi Calm Calm - N/A   Clear
2:52 AM -3.1 °F -11.4 °F -6.9 °F 84% 29.91 in 10.0 mi South 3.5 mph - N/A   Clear
3:12 AM -0.8 °F -10.8 °F -4.5 °F 84% 29.90 in 10.0 mi SSE 4.6 mph - N/A   Clear
3:32 AM -0.4 °F -14.7 °F -4.0 °F 85% 29.88 in 10.0 mi SSE 8.1 mph - N/A   Clear
3:52 AM 0.5 °F -15.6 °F -3.3 °F 84% 29.86 in 10.0 mi SSE 10.4 mph - N/A   Clear
4:13 AM 0.3 °F -13.8 °F -3.5 °F 84% 29.86 in 10.0 mi SE 8.1 mph - N/A   Clear
4:32 AM 0.5 °F -12.3 °F -3.1 °F 85% 29.85 in 10.0 mi SSE 6.9 mph - N/A   Clear
4:52 AM 1.8 °F -5.8 °F -1.8 °F 85% 29.85 in 10.0 mi SSE 3.5 mph - N/A   Clear
5:11 AM 2.8 °F -10.7 °F -0.6 °F 86% 29.84 in 10.0 mi SSE 8.1 mph - N/A   Scattered Clouds
5:32 AM 3.9 °F -6.9 °F 0.1 °F 84% 29.82 in 10.0 mi SSE 5.8 mph - N/A   Clear
5:52 AM 4.5 °F -7.6 °F 0.7 °F 84% 29.81 in 10.0 mi SE 6.9 mph - N/A   Mostly Cloudy
6:12 AM 5.5 °F -8.4 °F 1.9 °F 85% 29.81 in 10.0 mi SE 9.2 mph - N/A   Mostly Cloudy
6:32 AM 6.3 °F -6.5 °F 2.1 °F 83% 29.79 in 10.0 mi SE 8.1 mph - N/A   Mostly Cloudy
6:53 AM 6.6 °F -5.0 °F 2.3 °F 82% 29.78 in 10.0 mi SE 6.9 mph - N/A   Overcast
7:11 AM 7.0 °F -5.7 °F 2.7 °F 82% 29.78 in 10.0 mi SSE 8.1 mph - N/A   Overcast
7:32 AM 8.4 °F -4.9 °F 3.2 °F 79% 29.78 in 10.0 mi SSE 9.2 mph 16.1 mph N/A   Overcast
7:53 AM 9.5 °F -4.4 °F 3.7 °F 77% 29.78 in 10.0 mi SSE 10.4 mph - N/A   Overcast
8:12 AM 10.0 °F -4.5 °F 3.9 °F 76% 29.77 in 10.0 mi SE 11.5 mph - N/A   Overcast
8:32 AM 10.8 °F -3.6 °F 4.1 °F 75% 29.76 in 10.0 mi SSE 11.5 mph 18.4 mph N/A   Overcast
8:53 AM 12.0 °F -2.0 °F 4.6 °F 72% 29.75 in 10.0 mi SSE 11.5 mph 17.3 mph N/A   Overcast
9:12 AM 12.7 °F 1.4 °F 5.0 °F 71% 29.74 in 10.0 mi SSE 8.1 mph - N/A   Overcast
9:32 AM 13.6 °F 2.5 °F 5.5 °F 70% 29.75 in 10.0 mi SSE 8.1 mph - N/A   Overcast
9:52 AM 13.8 °F 3.7 °F 5.9 °F 71% 29.75 in 10.0 mi SSE 6.9 mph 16.1 mph N/A   Overcast
10:12 AM 13.6 °F 1.6 °F 7.3 °F 76% 29.75 in 3.0 mi SSE 9.2 mph - N/A Snow Light Snow
10:31 AM 13.3 °F 2.0 °F 8.8 °F 82% 29.75 in 1.0 mi SSE 8.1 mph - N/A Snow Light Snow
10:52 AM 14.0 °F 2.0 °F 10.0 °F 84% 29.75 in 1.0 mi SSE 9.2 mph - N/A Snow Light Snow
11:13 AM 14.7 °F 1.4 °F 10.9 °F 85% 29.73 in 1.0 mi SSE 11.5 mph - N/A Snow Light Snow
11:32 AM 15.8 °F 4.2 °F 11.3 °F 82% 29.73 in 4.0 mi SSE 9.2 mph - N/A   Haze
11:52 AM 15.3 °F 2.8 °F 10.9 °F 83% 29.73 in 4.0 mi SSE 10.4 mph - N/A   Overcast
12:12 PM 16.2 °F 5.5 °F 11.7 °F 82% 29.73 in 3.0 mi SSE 8.1 mph - N/A   Haze
12:32 PM 16.7 °F 4.5 °F 12.2 °F 82% 29.73 in 4.0 mi SE 10.4 mph - N/A   Haze
12:52 PM 17.2 °F 6.8 °F 12.7 °F 83% 29.72 in 5.0 mi SE 8.1 mph - N/A   Overcast
1:12 PM 17.6 °F 8.2 °F 12.7 °F 81% 29.73 in 7.0 mi SE 6.9 mph - N/A   Overcast
1:33 PM 18.3 °F 9.1 °F 13.1 °F 80% 29.73 in 7.0 mi SE 6.9 mph - N/A   Overcast
1:52 PM 18.1 °F - 12.9 °F 80% 29.74 in 10.0 mi Calm Calm - N/A   Overcast
2:12 PM 18.1 °F - 12.7 °F 79% 29.76 in 7.0 mi Calm Calm - N/A Snow Light Snow
2:33 PM 18.5 °F - 12.9 °F 79% 29.77 in 7.0 mi Calm Calm - N/A Snow Light Snow
2:52 PM 18.5 °F - 12.9 °F 79% 29.77 in 7.0 mi Calm Calm - N/A   Overcast
3:11 PM 19.0 °F - 13.1 °F 78% 29.79 in 10.0 mi Calm Calm - N/A   Overcast
3:32 PM 19.0 °F - 13.3 °F 78% 29.80 in 10.0 mi Calm Calm - N/A   Overcast
3:52 PM 19.0 °F 12.3 °F 13.8 °F 80% 29.81 in 10.0 mi North 4.6 mph - N/A   Overcast
4:12 PM 18.9 °F - 13.5 °F 79% 29.82 in 10.0 mi Calm Calm - N/A   Overcast
4:32 PM 18.7 °F 10.6 °F 13.3 °F 79% 29.84 in 10.0 mi North 5.8 mph - N/A   Overcast
4:52 PM 18.9 °F 9.8 °F 13.5 °F 79% 29.86 in 10.0 mi NNW 6.9 mph - N/A   Overcast
5:11 PM 19.0 °F 12.3 °F 13.6 °F 79% 29.87 in 10.0 mi NNW 4.6 mph - N/A   Overcast
5:32 PM 19.0 °F - 13.6 °F 79% 29.89 in 10.0 mi Calm Calm - N/A   Overcast
5:53 PM 19.0 °F - 13.8 °F 80% 29.90 in 10.0 mi Calm Calm - N/A   Overcast
6:12 PM 19.2 °F - 13.8 °F 80% 29.91 in 10.0 mi Calm Calm - N/A   Overcast
6:32 PM 19.2 °F - 13.8 °F 80% 29.93 in 10.0 mi Calm Calm - N/A   Overcast
6:52 PM 19.4 °F - 14.4 °F 81% 29.94 in 10.0 mi Calm Calm - N/A   Overcast
7:12 PM 19.4 °F - 14.7 °F 82% 29.95 in 10.0 mi Calm Calm - N/A   Overcast
7:32 PM 19.4 °F - 14.7 °F 82% 29.96 in 10.0 mi Calm Calm - N/A   Overcast
7:53 PM 19.4 °F - 14.9 °F 83% 29.97 in 10.0 mi Calm Calm - N/A   Overcast
8:12 PM 19.6 °F - 14.9 °F 82% 29.98 in 10.0 mi Calm Calm - N/A   Overcast
8:32 PM 19.8 °F 9.9 °F 13.5 °F 77% 29.99 in 10.0 mi NW 8.1 mph - N/A   Overcast
8:53 PM 18.7 °F 7.0 °F 12.6 °F 77% 29.99 in 10.0 mi NW 10.4 mph - N/A   Overcast
9:12 PM 17.6 °F 4.3 °F 11.8 °F 78% 30.00 in 10.0 mi NW 12.7 mph 17.3 mph N/A   Overcast
9:32 PM 16.7 °F 4.5 °F 11.5 °F 80% 30.01 in 10.0 mi NW 10.4 mph - N/A   Overcast
9:53 PM 16.0 °F 2.9 °F 10.8 °F 80% 30.04 in 10.0 mi NW 11.5 mph 17.3 mph N/A Snow Light Snow
10:12 PM 15.4 °F 3.0 °F 10.0 °F 79% 30.05 in 10.0 mi NW 10.4 mph - N/A Snow Light Snow
10:32 PM 14.9 °F 2.3 °F 9.9 °F 80% 30.06 in 10.0 mi NW 10.4 mph - N/A Snow Light Snow
10:51 PM 14.7 °F 1.4 °F 9.5 °F 80% 30.07 in 10.0 mi NW 11.5 mph 16.1 mph N/A Snow Light Snow
11:12 PM 14.2 °F 1.4 °F 9.1 °F 80% 30.07 in 10.0 mi NW 10.4 mph - N/A Snow Light Snow
11:32 PM 14.0 °F 2.0 °F 8.6 °F 79% 30.05 in 10.0 mi NNW 9.2 mph 16.1 mph N/A   Overcast
11:52 PM 12.9 °F -0.9 °F 7.9 °F 80% 30.04 in 10.0 mi NNW 11.5 mph 16.1 mph N/A Snow Light Snow